DW7032 Weather Reports


time (UTC)temp
C
wind
direction
speed
KPH
gust
KPH
rain 1hr
cm
rain 24hr
cm
rain mn
cm
humidity
%
barometer
mb
20260502194556 7 347 8.0 19.3 0.00 0.00 0.00 37 1016.8
20260502193049 8 268 3.2 14.5 0.00 0.00 0.00 41 1016.9
20260502191555 8 284 6.4 17.7 0.00 0.00 0.00 39 1017.2
20260502190047 7 241 4.8 24.1 0.00 0.00 0.00 42 1017.2
20260502184546 7 212 8.0 19.3 0.00 0.00 0.00 40 1017.3
20260502183045 8 283 11.3 17.7 0.00 0.00 0.00 42 1017.4
20260502181604 7 194 8.0 16.1 0.00 0.00 0.00 45 1017.5
20260502163038 8 337 4.8 14.5 0.00 0.00 0.00 47 1017.8
20260502161540 8 347 8.0 22.5 0.00 0.00 0.00 44 1017.9
20260502151529 7 295 6.4 19.3 0.00 0.00 0.00 49 1018.1
20260502123053 1 347 1.6 6.4 0.00 0.00 0.00 89 1018.8
20260502121549 0 262 1.6 4.8 0.00 0.00 0.00 93 1018.8
20260502114552 -3 281 0.0 3.2 0.00 0.00 0.00 93 1019.0
20260502113046 -3 281 0.0 1.6 0.00 0.00 0.00 92 1019.0
20260502111545 -4 281 0.0 1.6 0.00 0.00 0.00 91 1018.9
20260502110045 -4 281 0.0 1.6 0.00 0.00 0.00 91 1018.9
20260502104543 -4 281 0.0 1.6 0.00 0.00 0.00 91 1018.8
20260502103041 -4 281 0.0 1.6 0.00 0.00 0.00 91 1018.8
20260502101544 -4 281 0.0 3.2 0.00 0.00 0.00 91 1018.8
20260502091532 -3 283 0.0 3.2 0.00 0.00 0.00 90 1018.7
20260502071520 -3 283 0.0 1.6 0.00 0.00 0.00 88 1018.4
20260502070018 -3 283 0.0 1.6 0.00 0.00 0.00 88 1018.3
20260502064534 -2 283 0.0 0.0 0.00 0.00 0.00 87 1018.3
20260502063017 -2 347 0.0 0.0 0.00 0.00 0.00 87 1018.4
20260502061513 -2 283 0.0 1.6 0.00 0.00 0.00 87 1018.4
20260502060011 -2 283 0.0 0.0 0.00 0.00 0.00 86 1018.5
20260502054509 -2 283 0.0 0.0 0.00 0.00 0.00 86 1018.6
20260502053007 -2 283 0.0 0.0 0.00 0.00 0.00 85 1018.5
20260502051504 -1 347 0.0 0.0 0.00 0.00 0.00 85 1018.5
20260502050005 -1 347 0.0 0.0 0.00 0.00 0.00 83 1018.4
20260502044504 -1 283 0.0 0.0 0.00 0.00 0.00 83 1018.4
20260502043100 -1 283 0.0 0.0 0.00 0.00 0.00 83 1018.3
20260502041556 0 283 0.0 0.0 0.00 0.00 0.00 83 1018.3
20260502040105 0 283 0.0 0.0 0.00 0.00 0.00 82 1018.4
20260502034555 0 283 0.0 1.6 0.00 0.00 0.00 81 1018.4
20260502033051 0 283 0.0 0.0 0.00 0.00 0.00 80 1018.4
20260502031604 0 283 0.0 0.0 0.00 0.00 0.00 80 1018.4
20260502030052 1 283 0.0 0.0 0.00 0.00 0.00 80 1018.4
20260502024551 1 347 0.0 1.6 0.00 0.00 0.00 79 1018.4
20260502023054 1 283 0.0 4.8 0.00 0.00 0.00 79 1018.4
20260502021550 1 347 3.2 4.8 0.00 0.00 0.00 79 1018.5
20260502020106 2 291 1.6 8.0 0.00 0.00 0.00 77 1018.4
20260502014552 2 292 1.6 6.4 0.00 0.00 0.00 76 1018.3
20260502013046 2 273 1.6 9.7 0.00 0.00 0.00 75 1018.2
20260502011551 2 295 3.2 8.0 0.00 0.00 0.00 75 1018.1
20260502010043 2 276 3.2 12.9 0.00 0.00 0.00 75 1017.9
20260502004550 2 289 3.2 9.7 0.00 0.00 0.00 74 1017.8
20260502003045 3 300 4.8 8.0 0.00 0.00 0.00 74 1017.9
20260502001619 3 299 3.2 12.9 0.00 0.00 0.00 73 1017.7
20260502000040 3 296 3.2 8.0 0.00 0.00 0.00 71 1017.6
20260501234538 3 286 3.2 9.7 0.00 0.00 0.00 69 1017.5
20260501233038 3 311 3.2 8.0 0.00 0.00 0.00 70 1017.5
20260501231539 4 260 3.2 6.4 0.00 0.00 0.00 66 1017.4
20260501230037 4 277 4.8 9.7 0.00 0.00 0.00 67 1017.4
20260501224551 5 347 3.2 16.1 0.00 0.00 0.00 67 1017.4
20260501223036 5 289 3.2 16.1 0.00 0.00 0.00 66 1017.4
20260501221537 5 304 3.2 12.9 0.00 0.00 0.00 66 1017.2
20260501220037 5 293 3.2 16.1 0.00 0.00 0.00 65 1017.1
20260501214532 5 285 4.8 17.7 0.00 0.00 0.00 66 1017.0
20260501213032 5 310 3.2 19.3 0.00 0.00 0.00 64 1016.9
20260501211630 5 347 8.0 16.1 0.00 0.00 0.00 62 1016.8
20260501210033 6 292 3.2 16.1 0.00 0.00 0.00 60 1016.7
20260501204527 6 275 6.4 16.1 0.00 0.00 0.00 59 1016.6
20260501203032 5 272 4.8 9.7 0.00 0.00 0.00 58 1016.5
20260501201524 6 263 6.4 17.7 0.00 0.00 0.00 53 1016.6
20260501200024 7 276 1.6 8.0 0.00 0.00 0.00 51 1016.4